Weather History for Cody, WY

Change the Weather History Date:

Tuesday, March 13, 2012

  Actual Average Record
Temperature  
Mean Temperature 48 °F -  
Max Temperature 60 °F 50 °F 70 °F (1934)
Min Temperature 35 °F 24 °F -4 °F (1944)
Degree Days  
Heating Degree Days 18    
Moisture  
Dew Point 20 °F    
Average Humidity 33    
Maximum Humidity 52    
Minimum Humidity 19    
Precipitation  
Precipitation 0.00 in - - ()
Sea Level Pressure  
Sea Level Pressure 29.64 in    
Wind  
Wind Speed 9 mph (South)    
Max Wind Speed 30 mph    
Max Gust Speed 46 mph    
Visibility 10 miles    
Events      
Averages and records for this station are not official NWS values.
T = Trace of Precipitation, MM = Missing Value Source: NWS Daily Summary

Daily Weather History Graph

Daily Weather History Graph

Search for Another Location

Airport:

Trip Planner

Search our weather history database for the weather conditions in past years. The results will help you decide how hot, cold, wet, or windy it might be!

Date:

Astronomy

Mar. 13, 2012 Rise Set
Actual Time 7:31 AM MDT 7:20 PM MDT
Civil Twilight 7:02 AM MDT 7:49 PM MDT
Nautical Twilight 6:28 AM MDT 8:23 PM MDT
Astronomical Twilight 5:54 AM MDT 8:57 PM MDT
Moon 1:10 AM MDT (3/13) 10:31 AM MDT (3/13)
Length of Visible Light 12h 47m
Length of Day
11h 49m
Waning Gibbous, 65% of the Moon is Illuminated
Mar 13
Waning Gibbous
Mar 14
Last Quarter
Mar 22
New
Mar 30
First Quarter
Apr 6
Full

Hourly Weather History & Observations

Time (MDT) Temp. Windchill Dew Point Humidity Pressure Visibility Wind Dir Wind Speed Gust Speed Precip Events Conditions
12:15 AM 41.0 °F 35.2 °F 17.6 °F 39% 29.76 in 10.0 mi SE 9.2 mph - N/A   Clear
12:35 AM 42.8 °F 37.5 °F 17.6 °F 36% 29.75 in 10.0 mi ESE 9.2 mph - N/A   Clear
12:55 AM 42.8 °F 40.1 °F 17.6 °F 36% 29.75 in 10.0 mi SSE 4.6 mph - N/A   Clear
1:15 AM 42.8 °F 40.1 °F 19.4 °F 39% 29.74 in 10.0 mi SE 4.6 mph - N/A   Clear
1:36 AM 42.8 °F 38.0 °F 19.4 °F 39% 29.74 in 10.0 mi South 8.1 mph - N/A   Clear
1:55 AM 44.6 °F 41.4 °F 17.6 °F 34% 29.73 in 10.0 mi SSW 5.8 mph - N/A   Clear
2:15 AM 42.8 °F 41.1 °F 17.6 °F 36% 29.72 in 10.0 mi SSW 3.5 mph - N/A   Clear
2:35 AM 42.8 °F 39.3 °F 17.6 °F 36% 29.72 in 10.0 mi NNW 5.8 mph - N/A   Clear
2:55 AM 37.4 °F 34.9 °F 19.4 °F 48% 29.72 in 10.0 mi North 3.5 mph - N/A   Clear
3:15 AM 39.2 °F - 19.4 °F 45% 29.71 in 10.0 mi Calm Calm - N/A   Clear
3:35 AM 39.2 °F - 19.4 °F 45% 29.70 in 10.0 mi Calm Calm - N/A   Clear
3:55 AM 39.2 °F 35.0 °F 17.6 °F 42% 29.70 in 10.0 mi West 5.8 mph - N/A   Clear
4:15 AM 37.4 °F - 17.6 °F 45% 29.69 in 10.0 mi Calm Calm - N/A   Clear
4:35 AM 37.4 °F 31.4 °F 19.4 °F 48% 29.68 in 10.0 mi East 8.1 mph - N/A   Clear
4:55 AM 37.4 °F 33.8 °F 19.4 °F 48% 29.68 in 10.0 mi ESE 4.6 mph - N/A   Clear
5:15 AM 42.8 °F 38.6 °F 19.4 °F 39% 29.67 in 10.0 mi ESE 6.9 mph - N/A   Clear
5:35 AM 39.2 °F 35.9 °F 21.2 °F 49% 29.66 in 10.0 mi ESE 4.6 mph - N/A   Clear
5:55 AM 37.4 °F - 21.2 °F 52% 29.66 in 10.0 mi Calm Calm - N/A   Clear
6:55 AM 39.2 °F 35.9 °F 19.4 °F 45% 29.65 in 10.0 mi South 4.6 mph - N/A   Clear
7:15 AM 39.2 °F 35.0 °F 19.4 °F 45% 29.64 in 10.0 mi SSE 5.8 mph - N/A   Clear
7:35 AM 35.6 °F 29.9 °F 17.6 °F 48% 29.64 in 10.0 mi SSE 6.9 mph - N/A   Clear
7:55 AM 37.4 °F 32.1 °F 19.4 °F 48% 29.64 in 10.0 mi SE 6.9 mph - N/A   Clear
8:15 AM 39.2 °F 34.2 °F 21.2 °F 49% 29.64 in 10.0 mi SSE 6.9 mph - N/A   Clear
8:35 AM 44.6 °F 40.7 °F 21.2 °F 39% 29.63 in 10.0 mi SSE 6.9 mph - N/A   Clear
9:35 AM 51.8 °F - 19.4 °F 28% 29.62 in 10.0 mi SSE 8.1 mph - N/A   Clear
9:55 AM 51.8 °F - 19.4 °F 28% 29.62 in 10.0 mi South 5.8 mph - N/A   Clear
10:15 AM 53.6 °F - 19.4 °F 26% 29.61 in 10.0 mi NE 9.2 mph - N/A   Clear
10:35 AM 55.4 °F - 19.4 °F 25% 29.60 in 10.0 mi SSW 9.2 mph - N/A   Clear
10:55 AM 57.2 °F - 21.2 °F 25% 29.60 in 10.0 mi SSE 29.9 mph 39.1 mph N/A   Clear
11:15 AM 57.2 °F - 21.2 °F 25% 29.60 in 10.0 mi South 24.2 mph 35.7 mph N/A   Partly Cloudy
11:35 AM 57.2 °F - 19.4 °F 23% 29.60 in 10.0 mi South 24.2 mph 38.0 mph N/A   Clear
11:55 AM 57.2 °F - 19.4 °F 23% 29.59 in 10.0 mi South 24.2 mph 31.1 mph N/A   Clear
12:15 PM 59.0 °F - 19.4 °F 22% 29.58 in 10.0 mi South 20.7 mph 31.1 mph N/A   Clear
12:35 PM 60.8 °F - 19.4 °F 20% 29.58 in 10.0 mi South 28.8 mph 39.1 mph N/A   Clear
12:55 PM 60.8 °F - 19.4 °F 20% 29.58 in 10.0 mi South 28.8 mph 39.1 mph N/A   Clear
1:15 PM 60.8 °F - 19.4 °F 20% 29.57 in 10.0 mi South 19.6 mph 31.1 mph N/A   Clear
1:35 PM 60.8 °F - 17.6 °F 19% 29.56 in 10.0 mi South 21.9 mph 34.5 mph N/A   Clear
2:15 PM 60.8 °F - 17.6 °F 19% 29.54 in 10.0 mi South 23.0 mph 33.4 mph N/A   Clear
2:55 PM 60.8 °F - 19.4 °F 20% 29.55 in 10.0 mi SW 20.7 mph 38.0 mph N/A   Mostly Cloudy
3:15 PM 60.8 °F - 19.4 °F 20% 29.55 in 10.0 mi SW 12.7 mph 24.2 mph N/A   Scattered Clouds
3:35 PM 60.8 °F - 19.4 °F 20% 29.55 in 10.0 mi WSW 23.0 mph 27.6 mph N/A   Partly Cloudy
3:55 PM 59.0 °F - 19.4 °F 22% 29.56 in 10.0 mi WSW 16.1 mph 24.2 mph N/A   Clear
4:55 PM 57.2 °F - 21.2 °F 25% 29.57 in 10.0 mi SW 13.8 mph 19.6 mph N/A   Clear
5:15 PM 57.2 °F - 21.2 °F 25% 29.58 in 10.0 mi SW 15.0 mph 25.3 mph N/A   Clear
5:35 PM 55.4 °F - 21.2 °F 26% 29.59 in 10.0 mi SW 13.8 mph 21.9 mph N/A   Clear
5:55 PM 55.4 °F - 21.2 °F 26% 29.60 in 10.0 mi SW 13.8 mph 24.2 mph N/A   Clear
6:15 PM 53.6 °F - 21.2 °F 28% 29.60 in 10.0 mi SSW 4.6 mph 19.6 mph N/A   Clear
6:35 PM 51.8 °F - 21.2 °F 30% 29.61 in 10.0 mi SW 6.9 mph - N/A   Clear
6:55 PM 51.8 °F - 21.2 °F 30% 29.61 in 10.0 mi NW 9.2 mph 20.7 mph N/A   Clear
7:15 PM 50.0 °F - 23.0 °F 35% 29.62 in 10.0 mi WNW 5.8 mph 16.1 mph N/A   Clear
7:35 PM 50.0 °F - 23.0 °F 35% 29.62 in 10.0 mi South 5.8 mph - N/A   Clear
7:55 PM 50.0 °F - 21.2 °F 32% 29.61 in 10.0 mi SSW 9.2 mph 19.6 mph N/A   Clear
8:15 PM 51.8 °F - 21.2 °F 30% 29.62 in 10.0 mi West 8.1 mph 24.2 mph N/A   Clear
8:35 PM 51.8 °F - 21.2 °F 30% 29.62 in 10.0 mi West 5.8 mph 20.7 mph N/A   Clear
8:55 PM 51.8 °F - 19.4 °F 28% 29.63 in 10.0 mi WNW 4.6 mph 28.8 mph N/A   Clear
9:15 PM 51.8 °F - 21.2 °F 30% 29.64 in 10.0 mi NNW 16.1 mph 46.0 mph N/A   Clear
9:55 PM 48.2 °F - 23.0 °F 37% 29.66 in 10.0 mi West 13.8 mph 19.6 mph N/A   Clear
10:15 PM 48.2 °F - 24.8 °F 40% 29.65 in 10.0 mi West 13.8 mph 23.0 mph N/A   Clear
10:55 PM 48.2 °F - 24.8 °F 40% 29.67 in 10.0 mi West 4.6 mph 18.4 mph N/A   Clear
11:35 PM 48.2 °F - 24.8 °F 40% 29.70 in 10.0 mi ESE 10.4 mph 17.3 mph N/A   Clear
11:55 PM 48.2 °F - 24.8 °F 40% 29.71 in 10.0 mi ESE 5.8 mph 23.0 mph N/A   Clear